Time,TemperatureF,DewpointF,PressureIn,WindDirection,WindDirectionDegrees,WindSpeedMPH,WindSpeedGustMPH,Humidity,HourlyPrecipIn,Conditions,Clouds,dailyrainin,SolarRadiationWatts/m^2,SoftwareType,DateUTC
2013-08-10 00:00:00,80.9,74.9,30.03,WSW,243,3.0,3.0,82,0.00,,,0.00,0,Wunderground v.1.15,2013-08-10 04:00:00,
2013-08-10 00:02:00,80.9,74.9,30.03,WSW,243,2.0,3.0,82,0.00,,,0.00,0,Wunderground v.1.15,2013-08-10 04:02:00,
2013-08-10 00:04:00,80.9,74.9,30.03,WSW,243,2.0,3.0,82,0.00,,,0.00,0,Wunderground v.1.15,2013-08-10 04:04:00,
2013-08-10 00:06:00,80.9,74.9,30.03,WSW,243,1.0,3.0,82,0.00,,,0.00,0,Wunderground v.1.15,2013-08-10 04:06:00,
2013-08-10 00:08:00,80.7,74.7,30.03,WSW,243,1.0,3.0,82,0.00,,,0.00,0,Wunderground v.1.15,2013-08-10 04:08:00,
2013-08-10 00:11:00,80.7,74.7,30.03,WSW,243,1.0,3.0,82,0.00,,,0.00,0,Wunderground v.1.15,2013-08-10 04:11:00,
2013-08-10 00:16:00,80.7,75.1,30.04,WSW,257,1.0,7.0,83,0.00,,,0.00,0,Wunderground v.1.15,2013-08-10 04:16:00,
2013-08-10 00:22:00,80.5,74.9,30.04,WSW,239,3.0,3.0,83,0.00,,,0.00,0,Wunderground v.1.15,2013-08-10 04:22:00,
2013-08-10 00:28:00,80.5,74.9,30.04,WSW,251,3.0,5.0,83,0.00,,,0.00,0,Wunderground v.1.15,2013-08-10 04:28:00,
2013-08-10 00:34:00,80.5,74.9,30.04,NNW,343,1.0,2.0,83,0.00,,,0.00,0,Wunderground v.1.15,2013-08-10 04:34:00,
2013-08-10 00:40:00,80.3,74.7,30.04,WNW,282,0.0,0.0,83,0.00,,,0.00,0,Wunderground v.1.15,2013-08-10 04:40:00,
2013-08-10 00:46:00,80.3,74.7,30.04,West,281,1.0,2.0,83,0.00,,,0.00,0,Wunderground v.1.15,2013-08-10 04:46:00,
2013-08-10 00:52:00,80.1,74.5,30.04,West,281,0.0,1.0,83,0.00,,,0.00,0,Wunderground v.1.15,2013-08-10 04:52:00,
2013-08-10 00:58:00,79.9,74.6,30.04,WSW,257,1.0,1.0,84,0.00,,,0.00,0,Wunderground v.1.15,2013-08-10 04:58:00,
2013-08-10 01:04:00,79.9,74.6,30.03,WSW,256,1.0,2.0,84,0.00,,,0.00,0,Wunderground v.1.15,2013-08-10 05:04:00,
2013-08-10 01:10:00,79.8,74.5,30.03,WSW,254,1.0,2.0,84,0.00,,,0.00,0,Wunderground v.1.15,2013-08-10 05:10:00,
2013-08-10 01:16:00,79.8,74.5,30.03,SSW,213,1.0,5.0,84,0.00,,,0.00,0,Wunderground v.1.15,2013-08-10 05:16:00,
2013-08-10 01:22:00,79.8,74.5,30.03,SSW,213,1.0,2.0,84,0.00,,,0.00,0,Wunderground v.1.15,2013-08-10 05:22:00,
2013-08-10 01:28:00,79.8,74.9,30.03,SSW,213,1.0,2.0,85,0.00,,,0.00,0,Wunderground v.1.15,2013-08-10 05:28:00,
2013-08-10 01:34:00,79.8,74.9,30.04,SW,215,1.0,2.0,85,0.00,,,0.00,0,Wunderground v.1.15,2013-08-10 05:34:00,
2013-08-10 01:40:00,79.6,74.7,30.04,SSW,212,2.0,4.0,85,0.00,,,0.00,0,Wunderground v.1.15,2013-08-10 05:40:00,
2013-08-10 01:46:00,79.6,74.7,30.04,SW,227,2.0,2.0,85,0.00,,,0.00,0,Wunderground v.1.15,2013-08-10 05:46:00,
2013-08-10 01:52:00,79.4,74.5,30.04,SW,223,2.0,5.0,85,0.00,,,0.00,0,Wunderground v.1.15,2013-08-10 05:52:00,
2013-08-10 01:58:00,79.4,74.8,30.04,WSW,240,3.0,5.0,86,0.00,,,0.00,0,Wunderground v.1.15,2013-08-10 05:58:00,
2013-08-10 02:04:00,79.2,74.6,30.04,WSW,241,2.0,5.0,86,0.00,,,0.00,0,Wunderground v.1.15,2013-08-10 06:04:00,
2013-08-10 02:10:00,79.2,74.6,30.04,WSW,241,1.0,5.0,86,0.00,,,0.00,0,Wunderground v.1.15,2013-08-10 06:10:00,
2013-08-10 02:16:00,79.2,74.6,30.03,WSW,241,1.0,2.0,86,0.00,,,0.00,0,Wunderground v.1.15,2013-08-10 06:16:00,
2013-08-10 02:22:00,79.0,74.8,30.03,WSW,240,1.0,1.0,87,0.00,,,0.00,0,Wunderground v.1.15,2013-08-10 06:22:00,
2013-08-10 02:28:00,79.0,74.8,30.03,WSW,240,1.0,2.0,87,0.00,,,0.00,0,Wunderground v.1.15,2013-08-10 06:28:00,
2013-08-10 02:34:00,78.8,74.6,30.03,WSW,240,1.0,2.0,87,0.00,,,0.00,0,Wunderground v.1.15,2013-08-10 06:34:00,
2013-08-10 02:40:00,78.8,74.9,30.03,SW,232,1.0,2.0,88,0.00,,,0.00,0,Wunderground v.1.15,2013-08-10 06:40:00,
2013-08-10 02:46:00,78.6,74.7,30.03,WSW,237,1.0,2.0,88,0.00,,,0.00,0,Wunderground v.1.15,2013-08-10 06:46:00,
2013-08-10 02:52:00,78.6,74.7,30.03,SW,226,2.0,5.0,88,0.00,,,0.00,0,Wunderground v.1.15,2013-08-10 06:52:00,
2013-08-10 02:58:00,78.6,74.7,30.03,WSW,258,3.0,5.0,88,0.00,,,0.00,0,Wunderground v.1.15,2013-08-10 06:58:00,
2013-08-10 03:04:00,78.5,75.0,30.03,SSW,196,2.0,2.0,89,0.00,,,0.00,0,Wunderground v.1.15,2013-08-10 07:04:00,
2013-08-10 03:11:00,78.5,75.0,30.03,SW,217,1.0,3.0,89,0.00,,,0.00,0,Wunderground v.1.15,2013-08-10 07:11:00,
2013-08-10 03:16:00,78.5,75.0,30.03,SW,230,1.0,3.0,89,0.00,,,0.00,0,Wunderground v.1.15,2013-08-10 07:16:00,
2013-08-10 03:22:00,78.5,75.0,30.03,SSW,212,2.0,2.0,89,0.00,,,0.00,0,Wunderground v.1.15,2013-08-10 07:22:00,
2013-08-10 03:28:00,78.5,75.0,30.03,SSW,202,2.0,5.0,89,0.00,,,0.00,0,Wunderground v.1.15,2013-08-10 07:28:00,
2013-08-10 03:34:00,78.5,75.0,30.03,SW,223,2.0,5.0,89,0.00,,,0.00,0,Wunderground v.1.15,2013-08-10 07:34:00,
2013-08-10 03:40:00,78.5,75.0,30.03,SW,234,2.0,5.0,89,0.00,,,0.00,0,Wunderground v.1.15,2013-08-10 07:40:00,
2013-08-10 03:46:00,78.5,75.0,30.03,SW,215,2.0,6.0,89,0.00,,,0.00,0,Wunderground v.1.15,2013-08-10 07:46:00,
2013-08-10 03:52:00,78.3,74.8,30.03,WSW,243,3.0,3.0,89,0.00,,,0.00,0,Wunderground v.1.15,2013-08-10 07:52:00,
2013-08-10 03:58:00,78.3,74.8,30.03,WSW,243,4.0,5.0,89,0.00,,,0.00,0,Wunderground v.1.15,2013-08-10 07:58:00,
2013-08-10 04:04:00,78.3,74.8,30.03,SW,233,3.0,5.0,89,0.00,,,0.00,0,Wunderground v.1.15,2013-08-10 08:04:00,
2013-08-10 04:11:00,78.1,74.6,30.03,SSW,205,3.0,3.0,89,0.00,,,0.00,0,Wunderground v.1.15,2013-08-10 08:11:00,
2013-08-10 04:16:00,78.1,74.9,30.02,SW,215,3.0,5.0,90,0.00,,,0.00,0,Wunderground v.1.15,2013-08-10 08:16:00,
2013-08-10 04:22:00,77.9,74.7,30.02,SSW,213,2.0,2.0,90,0.00,,,0.00,0,Wunderground v.1.15,2013-08-10 08:22:00,
2013-08-10 04:28:00,77.9,74.7,30.02,SSW,206,2.0,2.0,90,0.00,,,0.00,0,Wunderground v.1.15,2013-08-10 08:28:00,
2013-08-10 04:34:00,77.9,74.7,30.02,WSW,250,2.0,2.0,90,0.00,,,0.00,0,Wunderground v.1.15,2013-08-10 08:34:00,
2013-08-10 04:40:00,77.7,74.9,30.02,SSW,210,2.0,4.0,91,0.00,,,0.00,0,Wunderground v.1.15,2013-08-10 08:40:00,
2013-08-10 04:46:00,77.7,74.9,30.02,SW,215,3.0,4.0,91,0.00,,,0.00,0,Wunderground v.1.15,2013-08-10 08:46:00,
2013-08-10 04:52:00,77.7,74.9,30.02,WSW,241,2.0,2.0,91,0.00,,,0.00,0,Wunderground v.1.15,2013-08-10 08:52:00,
2013-08-10 04:58:00,77.6,74.8,30.02,SW,217,2.0,3.0,91,0.00,,,0.00,0,Wunderground v.1.15,2013-08-10 08:58:00,
2013-08-10 05:04:00,77.6,74.8,30.02,SW,215,2.0,2.0,91,0.00,,,0.00,0,Wunderground v.1.15,2013-08-10 09:04:00,
2013-08-10 05:10:00,77.6,74.8,30.02,SW,215,2.0,5.0,91,0.00,,,0.00,0,Wunderground v.1.15,2013-08-10 09:10:00,
2013-08-10 05:16:00,77.6,74.8,30.02,WSW,247,2.0,5.0,91,0.00,,,0.00,0,Wunderground v.1.15,2013-08-10 09:16:00,
2013-08-10 05:18:00,77.6,74.8,30.02,SW,222,3.0,5.0,91,0.00,,,0.00,0,Wunderground v.1.15,2013-08-10 09:18:00,
2013-08-10 05:24:00,77.6,74.8,30.02,WSW,244,3.0,3.0,91,0.00,,,0.00,0,Wunderground v.1.15,2013-08-10 09:24:00,
2013-08-10 05:30:00,77.4,74.6,30.03,West,280,2.0,5.0,91,0.00,,,0.00,0,Wunderground v.1.15,2013-08-10 09:30:00,
2013-08-10 05:36:00,77.4,74.6,30.03,WSW,248,2.0,5.0,91,0.00,,,0.00,0,Wunderground v.1.15,2013-08-10 09:36:00,
2013-08-10 05:42:00,77.4,74.9,30.03,SW,220,2.0,2.0,92,0.00,,,0.00,0,Wunderground v.1.15,2013-08-10 09:42:00,
2013-08-10 05:48:00,77.4,74.9,30.03,WSW,256,3.0,4.0,92,0.00,,,0.00,0,Wunderground v.1.15,2013-08-10 09:48:00,
2013-08-10 05:54:00,77.4,74.9,30.03,SW,216,3.0,5.0,92,0.00,,,0.00,0,Wunderground v.1.15,2013-08-10 09:54:00,
2013-08-10 06:00:00,77.4,74.9,30.03,West,270,2.0,2.0,92,0.00,,,0.00,0,Wunderground v.1.15,2013-08-10 10:00:00,
2013-08-10 06:06:00,77.4,74.9,30.03,South,174,2.0,7.0,92,0.00,,,0.00,0,Wunderground v.1.15,2013-08-10 10:06:00,
2013-08-10 06:12:00,77.2,74.7,30.03,SW,233,3.0,3.0,92,0.00,,,0.00,0,Wunderground v.1.15,2013-08-10 10:12:00,
2013-08-10 06:18:00,77.2,74.7,30.04,WNW,291,2.0,3.0,92,0.00,,,0.00,0,Wunderground v.1.15,2013-08-10 10:18:00,
2013-08-10 06:24:00,77.2,74.7,30.04,WSW,240,2.0,2.0,92,0.00,,,0.00,0,Wunderground v.1.15,2013-08-10 10:24:00,
2013-08-10 06:30:00,77.0,74.5,30.04,WSW,244,2.0,2.0,92,0.00,,,0.00,5,Wunderground v.1.15,2013-08-10 10:30:00,
2013-08-10 06:36:00,77.0,74.5,30.04,SW,234,2.0,3.0,92,0.00,,,0.00,7,Wunderground v.1.15,2013-08-10 10:36:00,
2013-08-10 06:42:00,77.0,74.8,30.04,SW,232,2.0,2.0,93,0.00,,,0.00,11,Wunderground v.1.15,2013-08-10 10:42:00,
2013-08-10 06:48:00,77.0,74.8,30.05,SW,232,2.0,2.0,93,0.00,,,0.00,16,Wunderground v.1.15,2013-08-10 10:48:00,
2013-08-10 06:54:00,77.0,74.8,30.05,SW,232,1.0,1.0,93,0.00,,,0.00,18,Wunderground v.1.15,2013-08-10 10:54:00,
2013-08-10 07:00:00,77.0,74.8,30.05,WSW,251,2.0,2.0,93,0.00,,,0.00,28,Wunderground v.1.15,2013-08-10 11:00:00,
2013-08-10 07:06:00,77.2,75.0,30.05,West,265,2.0,4.0,93,0.00,,,0.00,30,Wunderground v.1.15,2013-08-10 11:06:00,
2013-08-10 07:12:00,77.2,75.0,30.05,WNW,291,2.0,2.0,93,0.00,,,0.00,35,Wunderground v.1.15,2013-08-10 11:12:00,
2013-08-10 07:18:00,77.4,75.2,30.06,SSW,212,2.0,3.0,93,0.00,,,0.00,37,Wunderground v.1.15,2013-08-10 11:18:00,
2013-08-10 07:20:00,77.4,75.2,30.06,SSW,212,1.0,1.0,93,0.00,,,0.00,40,Wunderground v.1.15,2013-08-10 11:20:00,
2013-08-10 07:26:00,77.6,75.4,30.06,WSW,250,1.0,2.0,93,0.00,,,0.00,39,Wunderground v.1.15,2013-08-10 11:26:00,
2013-08-10 07:32:00,77.7,75.5,30.06,SW,215,1.0,1.0,93,0.00,,,0.00,46,Wunderground v.1.15,2013-08-10 11:32:00,
2013-08-10 07:38:00,77.7,75.2,30.06,SW,215,1.0,2.0,92,0.00,,,0.00,63,Wunderground v.1.15,2013-08-10 11:38:00,
2013-08-10 07:44:00,77.9,75.4,30.06,SW,227,2.0,2.0,92,0.00,,,0.00,60,Wunderground v.1.15,2013-08-10 11:44:00,
2013-08-10 07:50:00,78.1,75.6,30.07,West,263,2.0,2.0,92,0.00,,,0.00,69,Wunderground v.1.15,2013-08-10 11:50:00,
2013-08-10 07:56:00,78.5,75.7,30.07,SW,232,3.0,5.0,91,0.00,,,0.00,72,Wunderground v.1.15,2013-08-10 11:56:00,
2013-08-10 08:02:00,78.6,75.8,30.07,West,267,4.0,5.0,91,0.00,,,0.00,74,Wunderground v.1.15,2013-08-10 12:02:00,
2013-08-10 08:08:00,78.8,75.6,30.07,NW,326,4.0,5.0,90,0.00,,,0.00,88,Wunderground v.1.15,2013-08-10 12:08:00,
2013-08-10 08:14:00,79.2,75.7,30.07,WSW,237,3.0,12.0,89,0.00,,,0.00,86,Wunderground v.1.15,2013-08-10 12:14:00,
2013-08-10 08:20:00,79.4,75.5,30.07,WSW,248,6.0,9.0,88,0.00,,,0.00,239,Wunderground v.1.15,2013-08-10 12:20:00,
2013-08-10 08:26:00,79.9,76.0,30.07,WSW,253,4.0,9.0,88,0.00,,,0.00,250,Wunderground v.1.15,2013-08-10 12:26:00,
2013-08-10 08:32:00,80.5,75.9,30.07,WSW,258,2.0,3.0,86,0.00,,,0.00,292,Wunderground v.1.15,2013-08-10 12:32:00,
2013-08-10 08:38:00,81.2,75.9,30.07,WNW,287,2.0,5.0,84,0.00,,,0.00,299,Wunderground v.1.15,2013-08-10 12:38:00,
2013-08-10 08:44:00,81.6,75.9,30.07,SW,232,3.0,5.0,83,0.00,,,0.00,324,Wunderground v.1.15,2013-08-10 12:44:00,
2013-08-10 08:50:00,82.2,76.2,30.06,SW,222,4.0,4.0,82,0.00,,,0.00,338,Wunderground v.1.15,2013-08-10 12:50:00,
2013-08-10 08:56:00,83.2,76.0,30.06,West,280,4.0,7.0,79,0.00,,,0.00,313,Wunderground v.1.15,2013-08-10 12:56:00,
2013-08-10 09:02:00,83.4,76.2,30.06,WSW,243,4.0,5.0,79,0.00,,,0.00,320,Wunderground v.1.15,2013-08-10 13:02:00,
2013-08-10 09:08:00,83.8,76.6,30.06,WSW,256,5.0,6.0,79,0.00,,,0.00,399,Wunderground v.1.15,2013-08-10 13:08:00,
2013-08-10 09:14:00,84.7,77.1,30.06,NW,315,3.0,4.0,78,0.00,,,0.00,405,Wunderground v.1.15,2013-08-10 13:14:00,
2013-08-10 09:20:00,85.1,77.1,30.06,SW,222,3.0,3.0,77,0.00,,,0.00,389,Wunderground v.1.15,2013-08-10 13:20:00,
2013-08-10 09:26:00,85.5,77.1,30.06,NW,312,4.0,5.0,76,0.00,,,0.00,452,Wunderground v.1.15,2013-08-10 13:26:00,
2013-08-10 09:32:00,85.5,77.1,30.06,North,356,5.0,8.0,76,0.00,,,0.00,468,Wunderground v.1.15,2013-08-10 13:32:00,
2013-08-10 09:38:00,85.7,76.9,30.06,West,280,6.0,8.0,75,0.00,,,0.00,512,Wunderground v.1.15,2013-08-10 13:38:00,
2013-08-10 09:44:00,86.3,77.4,30.06,WSW,253,3.0,7.0,75,0.00,,,0.00,524,Wunderground v.1.15,2013-08-10 13:44:00,
2013-08-10 09:50:00,87.0,77.7,30.06,WSW,246,3.0,3.0,74,0.00,,,0.00,538,Wunderground v.1.15,2013-08-10 13:50:00,
2013-08-10 09:56:00,87.2,76.6,30.06,West,272,4.0,7.0,71,0.00,,,0.00,572,Wunderground v.1.15,2013-08-10 13:56:00,
2013-08-10 10:02:00,87.4,77.3,30.06,WSW,257,4.0,7.0,72,0.00,,,0.00,586,Wunderground v.1.15,2013-08-10 14:02:00,
2013-08-10 10:08:00,87.8,77.2,30.06,SW,217,3.0,7.0,71,0.00,,,0.00,607,Wunderground v.1.15,2013-08-10 14:08:00,
2013-08-10 10:14:00,87.6,76.6,30.06,WNW,284,3.0,10.0,70,0.00,,,0.00,623,Wunderground v.1.15,2013-08-10 14:14:00,
2013-08-10 10:20:00,87.8,77.2,30.07,SW,233,5.0,5.0,71,0.00,,,0.00,623,Wunderground v.1.15,2013-08-10 14:20:00,
2013-08-10 10:26:00,88.0,77.8,30.07,SW,229,5.0,10.0,72,0.00,,,0.00,271,Wunderground v.1.15,2013-08-10 14:26:00,
2013-08-10 10:32:00,88.0,77.0,30.07,WSW,250,5.0,5.0,70,0.00,,,0.00,304,Wunderground v.1.15,2013-08-10 14:32:00,
2013-08-10 10:38:00,88.2,77.2,30.07,WSW,239,4.0,5.0,70,0.00,,,0.00,253,Wunderground v.1.15,2013-08-10 14:38:00,
2013-08-10 10:44:00,88.2,77.2,30.07,WSW,243,4.0,5.0,70,0.00,,,0.00,790,Wunderground v.1.15,2013-08-10 14:44:00,
2013-08-10 10:50:00,88.2,76.3,30.07,West,278,5.0,7.0,68,0.00,,,0.00,757,Wunderground v.1.15,2013-08-10 14:50:00,
2013-08-10 10:56:00,88.0,77.0,30.07,SW,229,6.0,7.0,70,0.00,,,0.00,461,Wunderground v.1.15,2013-08-10 14:56:00,
2013-08-10 11:02:00,88.2,76.7,30.07,WSW,237,6.0,6.0,69,0.00,,,0.00,794,Wunderground v.1.15,2013-08-10 15:02:00,
2013-08-10 11:08:00,88.8,76.9,30.07,WSW,239,5.0,6.0,68,0.00,,,0.00,744,Wunderground v.1.15,2013-08-10 15:08:00,
2013-08-10 11:14:00,88.8,76.9,30.07,WSW,254,5.0,7.0,68,0.00,,,0.00,757,Wunderground v.1.15,2013-08-10 15:14:00,
2013-08-10 11:20:00,89.3,78.2,30.06,WSW,248,5.0,10.0,70,0.00,,,0.00,755,Wunderground v.1.15,2013-08-10 15:20:00,
2013-08-10 11:26:00,89.5,77.5,30.06,NW,304,5.0,10.0,68,0.00,,,0.00,774,Wunderground v.1.15,2013-08-10 15:26:00,
2013-08-10 11:32:00,89.5,77.1,30.06,WSW,246,3.0,4.0,67,0.00,,,0.00,762,Wunderground v.1.15,2013-08-10 15:32:00,
2013-08-10 11:38:00,90.3,77.8,30.06,NW,320,4.0,5.0,67,0.00,,,0.00,794,Wunderground v.1.15,2013-08-10 15:38:00,
2013-08-10 11:44:00,90.5,77.6,30.06,WNW,296,4.0,4.0,66,0.00,,,0.00,797,Wunderground v.1.15,2013-08-10 15:44:00,
2013-08-10 11:50:00,91.0,78.1,30.06,SW,232,4.0,4.0,66,0.00,,,0.00,829,Wunderground v.1.15,2013-08-10 15:50:00,
2013-08-10 11:56:00,90.5,77.1,30.06,NW,322,5.0,5.0,65,0.00,,,0.00,871,Wunderground v.1.15,2013-08-10 15:56:00,
2013-08-10 12:02:00,90.7,78.7,30.06,WSW,250,4.0,7.0,68,0.00,,,0.00,818,Wunderground v.1.15,2013-08-10 16:02:00,
2013-08-10 12:08:00,90.7,77.3,30.06,WNW,289,4.0,7.0,65,0.00,,,0.00,804,Wunderground v.1.15,2013-08-10 16:08:00,
2013-08-10 12:14:00,92.1,79.1,30.06,West,265,3.0,7.0,66,0.00,,,0.00,885,Wunderground v.1.15,2013-08-10 16:14:00,
2013-08-10 12:20:00,91.8,77.9,30.06,WSW,243,3.0,7.0,64,0.00,,,0.00,885,Wunderground v.1.15,2013-08-10 16:20:00,
2013-08-10 12:26:00,92.1,77.7,30.06,WNW,302,4.0,7.0,63,0.00,,,0.00,248,Wunderground v.1.15,2013-08-10 16:26:00,
2013-08-10 12:32:00,91.8,76.4,30.06,NW,306,3.0,5.0,61,0.00,,,0.00,248,Wunderground v.1.15,2013-08-10 16:32:00,
2013-08-10 12:38:00,91.0,75.7,30.06,NW,316,4.0,5.0,61,0.00,,,0.00,915,Wunderground v.1.15,2013-08-10 16:38:00,
2013-08-10 12:44:00,91.8,76.9,30.06,WSW,254,4.0,7.0,62,0.00,,,0.00,933,Wunderground v.1.15,2013-08-10 16:44:00,
2013-08-10 12:50:00,92.7,77.3,30.05,WNW,301,5.0,5.0,61,0.00,,,0.00,248,Wunderground v.1.15,2013-08-10 16:50:00,
2013-08-10 12:56:00,91.4,75.6,30.05,North,349,3.0,7.0,60,0.00,,,0.00,230,Wunderground v.1.15,2013-08-10 16:56:00,
2013-08-10 13:02:00,91.6,78.2,30.05,North,354,2.0,2.0,65,0.00,,,0.00,1047,Wunderground v.1.15,2013-08-10 17:02:00,
2013-08-10 13:08:00,92.1,76.7,30.05,NNW,335,2.0,4.0,61,0.00,,,0.00,354,Wunderground v.1.15,2013-08-10 17:08:00,
2013-08-10 13:14:00,91.4,75.6,30.05,WSW,254,3.0,6.0,60,0.00,,,0.00,345,Wunderground v.1.15,2013-08-10 17:14:00,
2013-08-10 13:20:00,91.6,76.7,30.04,NW,326,3.0,3.0,62,0.00,,,0.00,345,Wunderground v.1.15,2013-08-10 17:20:00,
2013-08-10 13:26:00,92.5,77.6,30.04,SW,217,3.0,3.0,62,0.00,,,0.00,345,Wunderground v.1.15,2013-08-10 17:26:00,
2013-08-10 13:32:00,91.6,75.7,30.04,WNW,295,3.0,3.0,60,0.00,,,0.00,248,Wunderground v.1.15,2013-08-10 17:32:00,
2013-08-10 13:38:00,92.7,76.3,30.04,West,265,2.0,6.0,59,0.00,,,0.00,920,Wunderground v.1.15,2013-08-10 17:38:00,
2013-08-10 13:44:00,93.8,76.8,30.04,SW,222,2.0,3.0,58,0.00,,,0.00,227,Wunderground v.1.15,2013-08-10 17:44:00,
2013-08-10 13:50:00,93.4,76.4,30.03,WSW,241,3.0,3.0,58,0.00,,,0.00,227,Wunderground v.1.15,2013-08-10 17:50:00,
2013-08-10 13:56:00,92.9,75.9,30.03,SW,234,3.0,7.0,58,0.00,,,0.00,208,Wunderground v.1.15,2013-08-10 17:56:00,
2013-08-10 14:02:00,92.7,77.3,30.02,WNW,287,4.0,11.0,61,0.00,,,0.00,581,Wunderground v.1.15,2013-08-10 18:02:00,
2013-08-10 14:08:00,92.9,75.4,30.02,WSW,240,3.0,11.0,57,0.00,,,0.00,1024,Wunderground v.1.15,2013-08-10 18:08:00,
2013-08-10 14:14:00,93.4,76.4,30.02,NW,304,3.0,8.0,58,0.00,,,0.00,1024,Wunderground v.1.15,2013-08-10 18:14:00,
2013-08-10 14:20:00,92.5,75.0,30.02,NW,315,3.0,5.0,57,0.00,,,0.00,208,Wunderground v.1.15,2013-08-10 18:20:00,
2013-08-10 14:26:00,92.1,75.2,30.02,NW,306,2.0,5.0,58,0.00,,,0.00,267,Wunderground v.1.15,2013-08-10 18:26:00,
2013-08-10 14:32:00,93.6,79.1,30.01,WNW,285,2.0,7.0,63,0.00,,,0.00,971,Wunderground v.1.15,2013-08-10 18:32:00,
2013-08-10 14:38:00,94.0,75.9,30.01,SW,220,3.0,7.0,56,0.00,,,0.00,971,Wunderground v.1.15,2013-08-10 18:38:00,
2013-08-10 14:44:00,93.8,76.8,30.01,South,191,3.0,5.0,58,0.00,,,0.00,162,Wunderground v.1.15,2013-08-10 18:44:00,
2013-08-10 14:50:00,93.2,75.7,30.01,WSW,246,3.0,3.0,57,0.00,,,0.00,109,Wunderground v.1.15,2013-08-10 18:50:00,
2013-08-10 14:56:00,92.7,76.3,30.01,SW,230,2.0,3.0,59,0.00,,,0.00,102,Wunderground v.1.15,2013-08-10 18:56:00,
2013-08-10 15:02:00,91.8,75.9,30.01,NW,323,1.0,1.0,60,0.00,,,0.00,169,Wunderground v.1.15,2013-08-10 19:02:00,
2013-08-10 15:08:00,91.4,75.1,30.01,West,264,1.0,2.0,59,0.00,,,0.00,232,Wunderground v.1.15,2013-08-10 19:08:00,
2013-08-10 15:14:00,91.4,75.6,30.01,NW,320,1.0,2.0,60,0.00,,,0.00,220,Wunderground v.1.15,2013-08-10 19:14:00,
2013-08-10 15:20:00,91.6,76.7,30.01,West,271,2.0,2.0,62,0.00,,,0.00,225,Wunderground v.1.15,2013-08-10 19:20:00,
2013-08-10 15:26:00,91.8,75.4,30.01,SW,226,3.0,3.0,59,0.00,,,0.00,246,Wunderground v.1.15,2013-08-10 19:26:00,
2013-08-10 15:32:00,93.2,78.2,30.00,West,267,3.0,5.0,62,0.00,,,0.00,809,Wunderground v.1.15,2013-08-10 19:32:00,
2013-08-10 15:38:00,93.2,76.2,30.00,WNW,292,4.0,5.0,58,0.00,,,0.00,190,Wunderground v.1.15,2013-08-10 19:38:00,
2013-08-10 15:44:00,93.4,77.4,30.00,West,278,3.0,3.0,60,0.00,,,0.00,822,Wunderground v.1.15,2013-08-10 19:44:00,
2013-08-10 15:50:00,94.9,76.7,29.99,SW,222,4.0,7.0,56,0.00,,,0.00,767,Wunderground v.1.15,2013-08-10 19:50:00,
2013-08-10 15:56:00,95.4,76.1,29.99,West,263,5.0,7.0,54,0.00,,,0.00,801,Wunderground v.1.15,2013-08-10 19:56:00,
2013-08-10 15:58:00,95.9,77.1,29.99,WSW,248,5.0,7.0,55,0.00,,,0.00,779,Wunderground v.1.15,2013-08-10 19:58:00,
2013-08-10 16:04:00,95.4,76.7,29.99,SSW,208,5.0,5.0,55,0.00,,,0.00,772,Wunderground v.1.15,2013-08-10 20:04:00,
2013-08-10 16:10:00,94.9,75.1,29.99,West,265,4.0,5.0,53,0.00,,,0.00,190,Wunderground v.1.15,2013-08-10 20:10:00,
2013-08-10 16:16:00,94.9,73.9,29.99,WSW,244,4.0,5.0,51,0.00,,,0.00,218,Wunderground v.1.15,2013-08-10 20:16:00,
2013-08-10 16:22:00,94.7,76.0,29.99,SW,232,3.0,4.0,55,0.00,,,0.00,234,Wunderground v.1.15,2013-08-10 20:22:00,
2013-08-10 16:28:00,93.8,74.6,29.99,WSW,256,3.0,7.0,54,0.00,,,0.00,139,Wunderground v.1.15,2013-08-10 20:28:00,
2013-08-10 16:34:00,93.2,75.7,29.99,West,278,4.0,10.0,57,0.00,,,0.00,106,Wunderground v.1.15,2013-08-10 20:34:00,
2013-08-10 16:40:00,90.7,77.3,29.99,North,350,4.0,10.0,65,0.20,,,0.02,158,Wunderground v.1.15,2013-08-10 20:40:00,
2013-08-10 16:46:00,88.2,80.1,29.99,North,359,3.0,10.0,77,0.18,,,0.03,442,Wunderground v.1.15,2013-08-10 20:46:00,
2013-08-10 16:52:00,88.2,80.5,29.99,NNW,328,1.0,1.0,78,0.07,,,0.03,475,Wunderground v.1.15,2013-08-10 20:52:00,
2013-08-10 16:58:00,89.3,80.7,29.99,NNW,328,0.0,1.0,76,0.04,,,0.03,433,Wunderground v.1.15,2013-08-10 20:58:00,
2013-08-10 17:04:00,90.1,78.1,29.99,WSW,253,1.0,3.0,68,0.00,,,0.03,308,Wunderground v.1.15,2013-08-10 21:04:00,
2013-08-10 17:10:00,90.3,78.7,29.99,West,272,2.0,2.0,69,0.00,,,0.03,104,Wunderground v.1.15,2013-08-10 21:10:00,
2013-08-10 17:16:00,89.9,77.5,29.98,WSW,246,2.0,2.0,67,0.00,,,0.03,81,Wunderground v.1.15,2013-08-10 21:16:00,
2013-08-10 17:22:00,89.5,77.5,29.98,SW,234,2.0,2.0,68,0.00,,,0.03,60,Wunderground v.1.15,2013-08-10 21:22:00,
2013-08-10 17:28:00,89.0,78.4,29.98,West,271,2.0,5.0,71,0.00,,,0.03,51,Wunderground v.1.15,2013-08-10 21:28:00,
2013-08-10 17:34:00,86.3,74.0,30.04,NW,312,9.0,28.0,67,0.00,,,0.03,0,Wunderground v.1.15,2013-08-10 21:34:00,
2013-08-10 17:40:00,82.2,74.7,30.04,North,359,12.0,12.0,78,1.02,,,0.09,7,Wunderground v.1.15,2013-08-10 21:40:00,
2013-08-10 17:46:00,78.5,72.9,30.05,NNW,342,9.0,12.0,83,0.59,,,0.19,14,Wunderground v.1.15,2013-08-10 21:46:00,
2013-08-10 17:52:00,76.7,72.5,30.05,North,353,8.0,9.0,87,0.29,,,0.23,14,Wunderground v.1.15,2013-08-10 21:52:00,
2013-08-10 17:58:00,76.0,72.5,30.05,North,359,5.0,9.0,89,0.07,,,0.23,90,Wunderground v.1.15,2013-08-10 21:58:00,
2013-08-10 18:04:00,75.8,73.0,30.03,NW,316,3.0,5.0,91,0.05,,,0.23,99,Wunderground v.1.15,2013-08-10 22:04:00,
2013-08-10 18:10:00,76.0,73.8,30.03,WNW,292,2.0,2.0,93,0.00,,,0.23,97,Wunderground v.1.15,2013-08-10 22:10:00,
2013-08-10 18:16:00,76.1,74.2,30.02,WSW,258,1.0,4.0,94,0.00,,,0.23,88,Wunderground v.1.15,2013-08-10 22:16:00,
2013-08-10 18:22:00,76.3,74.4,30.02,WSW,258,1.0,1.0,94,0.00,,,0.23,77,Wunderground v.1.15,2013-08-10 22:22:00,
2013-08-10 18:28:00,76.3,74.4,30.02,WSW,244,1.0,2.0,94,0.00,,,0.23,55,Wunderground v.1.15,2013-08-10 22:28:00,
2013-08-10 18:34:00,76.5,75.0,30.03,WSW,244,1.0,4.0,95,0.00,,,0.23,39,Wunderground v.1.15,2013-08-10 22:34:00,
2013-08-10 18:40:00,76.7,75.2,30.03,WSW,244,1.0,1.0,95,0.00,,,0.23,28,Wunderground v.1.15,2013-08-10 22:40:00,
2013-08-10 18:46:00,76.7,75.2,30.05,WSW,244,1.0,2.0,95,0.00,,,0.23,21,Wunderground v.1.15,2013-08-10 22:46:00,
2013-08-10 18:52:00,76.8,75.6,30.05,WSW,244,0.0,1.0,96,0.00,,,0.24,14,Wunderground v.1.15,2013-08-10 22:52:00,
2013-08-10 19:00:00,76.8,75.6,30.05,WSW,244,0.0,0.0,96,0.08,,,0.25,14,Wunderground v.1.15,2013-08-10 23:00:00,
2013-08-10 19:06:00,76.8,75.6,30.05,WSW,244,0.0,0.0,96,0.08,,,0.25,14,Wunderground v.1.15,2013-08-10 23:06:00,
2013-08-10 19:12:00,76.8,75.6,30.05,WSW,244,0.0,0.0,96,0.05,,,0.25,18,Wunderground v.1.15,2013-08-10 23:12:00,
2013-08-10 19:18:00,76.8,75.6,30.04,West,265,0.0,0.0,96,0.00,,,0.25,25,Wunderground v.1.15,2013-08-10 23:18:00,
2013-08-10 19:24:00,76.8,75.6,30.04,West,265,0.0,0.0,96,0.00,,,0.25,32,Wunderground v.1.15,2013-08-10 23:24:00,
2013-08-10 19:30:00,77.0,76.1,30.05,West,265,0.0,2.0,97,0.00,,,0.26,35,Wunderground v.1.15,2013-08-10 23:30:00,
2013-08-10 19:36:00,77.0,76.1,30.05,WSW,243,1.0,2.0,97,0.00,,,0.26,32,Wunderground v.1.15,2013-08-10 23:36:00,
2013-08-10 19:42:00,77.0,76.1,30.05,WSW,246,1.0,1.0,97,0.00,,,0.26,25,Wunderground v.1.15,2013-08-10 23:42:00,
2013-08-10 19:48:00,77.0,76.1,30.06,WSW,246,1.0,3.0,97,0.00,,,0.26,21,Wunderground v.1.15,2013-08-10 23:48:00,
2013-08-10 19:54:00,76.8,75.9,30.06,SW,236,1.0,2.0,97,0.00,,,0.26,18,Wunderground v.1.15,2013-08-10 23:54:00,
2013-08-10 20:00:00,76.7,75.8,30.07,SW,236,2.0,2.0,97,0.00,,,0.26,11,Wunderground v.1.15,2013-08-11 00:00:00,
2013-08-10 20:06:00,76.5,75.6,30.07,SW,236,2.0,3.0,97,0.00,,,0.26,7,Wunderground v.1.15,2013-08-11 00:06:00,
2013-08-10 20:12:00,76.5,75.6,30.07,SW,236,0.0,0.0,97,0.00,,,0.26,0,Wunderground v.1.15,2013-08-11 00:12:00,
2013-08-10 20:18:00,76.3,75.4,30.06,SW,236,0.0,1.0,97,0.00,,,0.26,0,Wunderground v.1.15,2013-08-11 00:18:00,
2013-08-10 20:24:00,76.3,75.4,30.06,SW,236,1.0,1.0,97,0.00,,,0.26,0,Wunderground v.1.15,2013-08-11 00:24:00,
2013-08-10 20:30:00,76.3,75.4,30.07,SW,236,0.0,0.0,97,0.00,,,0.26,0,Wunderground v.1.15,2013-08-11 00:30:00,
2013-08-10 20:36:00,76.3,75.4,30.07,SW,236,1.0,2.0,97,0.00,,,0.26,0,Wunderground v.1.15,2013-08-11 00:36:00,
2013-08-10 20:42:00,76.1,75.2,30.07,SW,233,1.0,2.0,97,0.00,,,0.26,0,Wunderground v.1.15,2013-08-11 00:42:00,
2013-08-10 20:48:00,76.1,75.2,30.07,SW,233,1.0,2.0,97,0.00,,,0.26,0,Wunderground v.1.15,2013-08-11 00:48:00,
2013-08-10 20:54:00,76.0,75.1,30.07,SW,233,0.0,0.0,97,0.00,,,0.26,0,Wunderground v.1.15,2013-08-11 00:54:00,
2013-08-10 21:00:00,76.0,75.1,30.07,SW,233,0.0,2.0,97,0.00,,,0.26,0,Wunderground v.1.15,2013-08-11 01:00:00,
2013-08-10 21:06:00,75.8,74.9,30.07,SW,233,1.0,2.0,97,0.00,,,0.26,0,Wunderground v.1.15,2013-08-11 01:06:00,
2013-08-10 21:12:00,75.6,74.7,30.07,SW,233,2.0,2.0,97,0.00,,,0.26,0,Wunderground v.1.15,2013-08-11 01:12:00,
2013-08-10 21:18:00,75.6,74.7,30.07,SW,234,2.0,2.0,97,0.00,,,0.26,0,Wunderground v.1.15,2013-08-11 01:18:00,
2013-08-10 21:24:00,75.4,74.5,30.07,SW,234,2.0,2.0,97,0.00,,,0.26,0,Wunderground v.1.15,2013-08-11 01:24:00,
2013-08-10 21:30:00,75.4,74.8,30.07,SW,234,0.0,0.0,98,0.00,,,0.26,0,Wunderground v.1.15,2013-08-11 01:30:00,
2013-08-10 21:36:00,75.4,74.8,30.07,SW,234,0.0,0.0,98,0.00,,,0.26,0,Wunderground v.1.15,2013-08-11 01:36:00,
2013-08-10 21:42:00,75.3,74.7,30.07,SW,234,0.0,0.0,98,0.00,,,0.26,0,Wunderground v.1.15,2013-08-11 01:42:00,
2013-08-10 21:48:00,75.3,74.7,30.07,SW,234,0.0,0.0,98,0.00,,,0.26,0,Wunderground v.1.15,2013-08-11 01:48:00,
2013-08-10 21:54:00,75.1,74.5,30.07,SW,234,0.0,0.0,98,0.00,,,0.26,0,Wunderground v.1.15,2013-08-11 01:54:00,
2013-08-10 22:01:00,75.1,74.5,30.07,SW,234,0.0,0.0,98,0.00,,,0.26,0,Wunderground v.1.15,2013-08-11 02:01:00,
2013-08-10 22:06:00,75.1,74.5,30.07,SW,234,1.0,2.0,98,0.00,,,0.26,0,Wunderground v.1.15,2013-08-11 02:06:00,
2013-08-10 22:12:00,74.9,74.3,30.07,SW,234,1.0,2.0,98,0.00,,,0.26,0,Wunderground v.1.15,2013-08-11 02:12:00,
2013-08-10 22:18:00,74.9,74.3,30.08,SW,234,1.0,2.0,98,0.00,,,0.26,0,Wunderground v.1.15,2013-08-11 02:18:00,
2013-08-10 22:24:00,74.9,74.3,30.08,SW,234,1.0,2.0,98,0.00,,,0.26,0,Wunderground v.1.15,2013-08-11 02:24:00,
2013-08-10 22:30:00,74.7,74.1,30.08,SW,234,1.0,1.0,98,0.00,,,0.26,0,Wunderground v.1.15,2013-08-11 02:30:00,
2013-08-10 22:36:00,74.7,74.1,30.08,SW,234,0.0,1.0,98,0.00,,,0.26,0,Wunderground v.1.15,2013-08-11 02:36:00,
2013-08-10 22:42:00,74.7,74.1,30.08,SW,234,0.0,1.0,98,0.00,,,0.26,0,Wunderground v.1.15,2013-08-11 02:42:00,
2013-08-10 22:48:00,74.7,74.1,30.09,SW,234,0.0,1.0,98,0.00,,,0.26,0,Wunderground v.1.15,2013-08-11 02:48:00,
2013-08-10 22:54:00,74.6,74.0,30.09,SW,234,0.0,0.0,98,0.00,,,0.26,0,Wunderground v.1.15,2013-08-11 02:54:00,
2013-08-10 23:00:00,74.6,74.0,30.09,SW,234,0.0,0.0,98,0.00,,,0.26,0,Wunderground v.1.15,2013-08-11 03:00:00,
2013-08-10 23:06:00,74.6,74.0,30.09,SW,234,0.0,1.0,98,0.00,,,0.26,0,Wunderground v.1.15,2013-08-11 03:06:00,
2013-08-10 23:14:00,74.6,74.0,30.09,SW,234,0.0,0.0,98,0.00,,,0.26,0,Wunderground v.1.15,2013-08-11 03:14:00,
2013-08-10 23:20:00,74.6,74.0,30.08,SW,234,0.0,0.0,98,0.00,,,0.26,0,Wunderground v.1.15,2013-08-11 03:20:00,
2013-08-10 23:28:00,74.6,74.0,30.08,SW,234,0.0,0.0,98,0.00,,,0.26,0,Wunderground v.1.15,2013-08-11 03:28:00,
2013-08-10 23:34:00,74.7,74.1,30.09,SW,234,0.0,0.0,98,0.00,,,0.26,0,Wunderground v.1.15,2013-08-11 03:34:00,
2013-08-10 23:42:00,74.7,74.1,30.09,SW,234,0.0,5.0,98,0.00,,,0.26,0,Wunderground v.1.15,2013-08-11 03:42:00,
2013-08-10 23:48:00,74.7,74.1,30.09,SW,234,0.0,5.0,98,0.00,,,0.26,0,Wunderground v.1.15,2013-08-11 03:48:00,
2013-08-10 23:56:00,74.7,74.1,30.09,SW,234,0.0,0.0,98,0.00,,,0.26,0,Wunderground v.1.15,2013-08-11 03:56:00,